Location: Chiroubles
(46.1812°N, 4.6660°E)
Time: 04:37:24
(UTC+00:00)

Cosmos 2239 Rocket - Visible Passes

Search period start: 26 November 2020 00:00
Search period end: 06 December 2020 00:00
Orbit: 953 x 992 km, 82.9° (Epoch: 25 November)

Date Brightness Start Highest point End Pass type
(mag) Time Alt. Az. Time Alt. Az. Time Alt. Az.
26 Nov 4.4 18:20:36 10° N 18:26:25 56° ENE 18:26:25 56° ENE visible
26 Nov 6.4 20:06:44 10° NNW 20:11:08 24° WNW 20:11:08 24° WNW visible
27 Nov 7.1 06:10:19 10° ESE 06:14:07 17° E 06:17:54 10° NE visible
27 Nov 5.7 17:01:16 10° NNE 17:05:09 17° ENE 17:08:42 11° E visible
27 Nov 4.4 18:45:09 10° N 18:51:21 86° W 18:57:31 10° S visible
27 Nov 7.0 20:32:43 10° NW 20:35:41 14° WNW 20:38:40 10° WSW visible
28 Nov 5.2 17:25:00 10° N 17:30:14 28° ENE 17:35:28 10° SE visible
28 Nov 5.2 19:09:56 10° NNW 19:15:51 51° W 19:21:47 10° SSW visible
29 Nov 4.6 17:49:12 10° N 17:55:08 47° ENE 18:01:05 10° SSE visible
29 Nov 6.1 19:35:00 10° NNW 19:40:12 30° W 19:45:26 10° SW visible
30 Nov 7.2 05:39:52 10° ESE 05:42:50 14° ENE 05:45:47 10° NE visible
30 Nov 5.9 16:30:18 10° NNE 16:33:29 14° ENE 16:36:39 10° E visible
30 Nov 4.3 18:13:40 10° N 18:19:52 80° E 18:26:04 10° S visible
30 Nov 6.9 20:00:36 10° NW 20:04:24 17° W 20:08:12 10° WSW visible
01 Dec 6.8 06:02:09 10° SE 06:06:58 25° E 06:11:47 10° NNE visible
01 Dec 5.4 16:53:45 10° NNE 16:58:38 24° ENE 17:03:31 10° ESE visible
01 Dec 4.9 18:38:22 10° NNW 18:44:26 61° W 18:50:31 10° S visible
02 Dec 5.9 06:25:33 10° SSE 06:31:16 42° E 06:36:59 10° NNE visible
02 Dec 4.8 17:17:50 10° N 17:23:36 39° ENE 17:29:21 10° SE visible
02 Dec 5.9 19:03:19 10° NNW 19:08:51 36° W 19:14:23 10° SSW visible
03 Dec 7.5 05:09:55 10° E 05:11:34 11° ENE 05:13:12 10° ENE visible
03 Dec 4.4 17:42:13 10° N 17:48:23 67° E 17:54:33 10° SSE visible
03 Dec 6.7 19:28:41 10° NW 19:33:05 21° W 19:37:31 10° SW visible
04 Dec 7.0 05:31:19 10° SE 05:35:38 20° E 05:39:58 10° NE visible
04 Dec 4.6 18:06:50 10° NNW 18:13:00 74° W 18:19:12 10° S visible
04 Dec 7.4 19:55:17 10° WNW 19:57:11 11° WNW 19:59:05 10° W visible
05 Dec 6.2 05:54:25 10° SSE 05:59:53 35° E 06:05:21 10° NNE visible
05 Dec 5.1 16:46:30 10° N 16:52:02 33° ENE 16:57:35 10° SE visible
05 Dec 5.6 18:31:42 10° NNW 18:37:28 43° W 18:43:16 10° SSW visible
